Location: Chuathbaluk
(61.5726°N, 159.2454°W)
Time: 22:02:24
(UTC+00:00)

Transit 2A - Pass Details

Date: 05 December 2020
Orbit: 598 x 960 km, 66.7° (Epoch: 20 January)

Event Time Altitude Azimuth Distance (km) Brightness Sun altitude
Rises 02:04:08 0° 179° (S) 3,607 10.1 -4.4°
Reaches altitude 10° 02:07:10 10° 167° (SSE) 2,635 9.2 -4.7°
Maximum altitude 02:11:58 24° 115° (ESE) 1,754 7.7 -5.1°
Drops below altitude 10° 02:16:32 10° 63° (ENE) 2,491 8.0 -5.6°
Enters shadow 02:17:28 - 58° (ENE) 2,771 8.2 -5.7°
Sets 02:19:18 0° 51° (NE) 3,369 - -5.8°
